Regional Weather Roundup
Issued by NWS

Home | Current Version | Previous Version | Graphics & Text | Print | Product List | Glossary On
Versions: 1 2 3 4 5 6 7 8 9 10 11 12 13 14 15 16 17 18 19 20 21 22 23 24 25 26 27 28 29 30 31 32 33 34 35 36 37 38 39 40 41 42 43 44 45 46 47 48 49 50
000
ASUS43 KIND 231509
RWRIN

WEATHER ROUNDUP FOR INDIANA
NATIONAL WEATHER SERVICE INDIANAPOLIS IN
1100 AM EDT MON APR 23 2018

NOTE: "FAIR" INDICATES FEW OR NO CLOUDS BELOW 12,000 FEET WITH NO
SIGNIFICANT WEATHER AND/OR OBSTRUCTIONS TO VISIBILITY.

* - STATION DOES NOT REPORT WEATHER SUCH AS PRECIPITATION OR FOG.

+ - STATION NOT QUALITY CONTROLLED BY THE NATIONAL WEATHER SERVICE.
    USE DATA WITH CAUTION...ESPECIALLY DEWPOINT AND RELATIVE
    HUMIDITY OBSERVATIONS.

INZ001>003-010>013-019-020-231600-
NORTHWEST INDIANA

CITY           SKY/WX    TMP DP  RH WIND       PRES   REMARKS
GARY /AIRPORT/ CLOUDY    46  32  57 N10       30.20S
KNOX *+        FAIR      55  34  44 E7        30.16F
LA PORTE +     FAIR      56  32  40 E10       30.17F
MICHIGAN CITY+ FAIR      57  32  38 CALM      30.18S
MONTICELLO +   FAIR      55  32  41 E7        30.13F
RENSSELAER +   FAIR      55  21  26 NE13      30.14F
VALPARAISO     FAIR      58  31  35 NE9       30.17S

$$

LMZ046-743>745-231600-
SOUTHERN LAKE MICHIGAN

STATION/POSITION TIME  TEMP    WIND        PRES    WAVE
                       AIR SEA DIR/SP/G            HT
                 (UTC) (F)     (DEG/KT/KT) (MB)    (FT)
BURNS HARBOR     1501   43      40/  6/  8 1022.4
MICHIGAN CITY    1440   42      30/  6/  7   N/A

$$

INZ004-005-014>016-021>024-231600-
NORTH CENTRAL INDIANA

CITY           SKY/WX    TMP DP  RH WIND       PRES   REMARKS
ELKHART        FAIR      59  32  36 NE8       30.18S
GOSHEN         FAIR      59  37  44 E10       30.17F
LOGANSPORT +   FAIR      55  36  47 E8        30.14F
PERU/GRISSOM   CLOUDY    57  37  47 E12       30.13S
ROCHESTER +    FAIR      61  34  36 E10       30.16S
SOUTH BEND     FAIR      57  30  35 E8        30.19R
WARSAW +       FAIR      57  36  44 E9        30.16F

$$

INZ006>009-017-018-025>027-231600-
NORTHEAST INDIANA

CITY           SKY/WX    TMP DP  RH WIND       PRES   REMARKS
AUBURN +       FAIR      57  37  47 E8        30.19S
FORT WAYNE     PTSUNNY   58  40  51 E10       30.18S
HUNTINGTON +   FAIR      59  37  43 E9        30.16S
KENDALLVILLE + FAIR      58  30  34 E7        30.18F

$$

INZ028-029-035-036-043>045-051>053-231600-
WEST CENTRAL INDIANA

CITY           SKY/WX    TMP DP  RH WIND       PRES   REMARKS
CRAWFORDSVL +  FAIR      56  38  51 E9        30.09S
GREENCASTLE +  CLOUDY    50  41  71 E12       30.09S
LAFAYETTE      PTSUNNY   53  37  54 NE12      30.11F
TERRE HAUTE    RAIN      51  49  92 E12       30.08R FOG

$$

INZ030>032-037>040-046>048-054>057-064-065-231600-
CENTRAL INDIANA

CITY           SKY/WX    TMP DP  RH WIND       PRES   REMARKS
ANDERSON       SUNNY     61  41  48 SE12      30.12F
COLUMBUS       LGT RAIN  50 N/A N/A E8        30.11S FOG
FISHERS *+     PTSUNNY   55  43  62 E6        30.12S
FRANKFORT +    PTSUNNY   58  37  45 E13       30.13S
GREENWOOD *+   CLOUDY    52  46  79 E7        30.11S
INDIANAPOLIS   LGT RAIN  54  45  71 E13       30.10F
-EAGLE CREEK   LGT RAIN  56  40  55 E8        30.10S
KOKOMO +       FAIR      56  37  49 E14       30.13F
MARION +       FAIR      57  37  47 E8        30.14F
MT COMFORT *+  CLOUDY    57  46  67 SE10      30.12R
SHELBYVILLE    LGT RAIN  54  44  69 E9        30.11S
ZIONSVILLE +   FAIR      55  37  52 E9        30.12S

$$

INZ033-034-041-042-049-050-058-059-231600-
EAST CENTRAL INDIANA

CITY           SKY/WX    TMP DP  RH WIND       PRES   REMARKS
MUNCIE         FAIR      64  42  44 SE12      30.12F
RICHMOND +     FAIR      59  43  55 SE14      30.13F

$$

INZ060-061-067>069-081>083-085>088-231600-
SOUTHWEST INDIANA

CITY           SKY/WX    TMP DP  RH WIND       PRES   REMARKS
EVANSVILLE     CLOUDY    58  55  90 E13G22    29.97S
HUNTINGBURG +  LGT RAIN  57  54  89 E15G21    30.00S
WASHINGTON +   LGT RAIN  54  51  90 E15       30.03R

$$

INZ062-063-066-070>080-084-089>092-231600-
SOUTH CENTRAL AND SOUTHEAST INDIANA

CITY           SKY/WX    TMP DP  RH WIND       PRES   REMARKS
BATESVILLE +   CLOUDY    54  46  76 MISG      30.12R HAZE
BEDFORD +      LGT RAIN  50  48  93 E9        30.07R
BLOOMINGTON    LGT RAIN  50  49  96 E10       30.08R
FRENCH LICK *+ CLOUDY    52 N/A N/A E6G16     30.03S
MADISON *+     CLOUDY    52  48  87 E12       30.11S
NORTH VERNON + RAIN      50  48  93 E12G20    30.10S
SEYMOUR +      RAIN      52  52 100 E7        30.08F

$$





USA.gov is the U.S. government's official web portal to all federal, state and local government web resources and services.